Regional Weather Roundup
Issued by NWS Charleston, SC

Home | Current Version | Previous Version | Text Only | Print | Product List | Glossary On
Versions: 1 2 3 4 5 6 7 8 9 10 11 12 13 14 15 16 17 18 19 20 21 22 23 24 25 26 27 28 29 30 31 32 33 34 35 36 37 38 39 40 41 42 43 44 45 46 47 48 49 50
000
ASUS42 KCHS 102325
RWRCHS

REGIONAL WEATHER ROUNDUP
NATIONAL WEATHER SERVICE CHARLESTON SC
700 PM EDT THU JUL 10 2014

NOTE: "FAIR" INDICATES FEW OR NO CLOUDS BELOW 12,000 FEET WITH NO
SIGNIFICANT WEATHER AND/OR OBSTRUCTIONS TO VISIBILITY.

NOT ALL STATIONS ARE QUALITY CONTROLLED BY THE NATIONAL
WEATHER SERVICE. USE DATA WITH CAUTION...ESPECIALLY
DEWPOINT OBSERVATIONS.

SCZ027-030-031-034>040-042>050-110000-
...SOUTH CAROLINA...

CITY           SKY/WX    TMP DP  RH WIND       PRES   REMARKS
N CHARLESTON   PTSUNNY   85  74  69 S13       30.04R HX  92
WATERFRONT PRK   N/A     84 N/A N/A S18         N/A
FORT JOHNSON   NOT AVBL
MOUNT PLEASANT FAIR      84  75  74 S16       30.04S HX  92
JOHNS ISLAND   PTCLDY    82  73  74 S15G22    30.05R
PINOPOLIS        N/A     91  72  52 SW13      29.94R HX  98
MONCKS CORNER    N/A     86  75  70 SW8       30.03R HX  95
SUMMERVILLE    LGT RAIN  79  77  94 S6        30.03F
BEAUFORT MCAS  PTSUNNY   87  73  62 SW13G22   30.03R HX  94
BEAUFORT ARPT  MOCLDY    82  77  83 S9G18     30.04R HX  91
HILTON HEAD IS MOSUNNY   84  75  74 S10G26    30.05R HX  92
GEORGETOWN     NOT AVBL
WALTERBORO     PTCLDY    81  79  94 SE6       30.05R
ORANGEBURG     PTSUNNY   89  67  47 SW3       30.00S HX  92
BARNWELL       FAIR      91  68  46 SW3       30.01R HX  95
AIKEN          FAIR      88  72  58 NW5       30.05R HX  94
MANNING        MOCLDY    84  73  70 SE6       30.01R THUNDER HX  91
KINGSTREE      NOT AVBL
COLUMBIA       PTSUNNY   91  68  46 N3        29.99S HX  95
SUMTER         MOSUNNY   89  71  53 NW3       29.98S HX  95
FLORENCE       PTSUNNY   76  73  91 E12       30.04R
MYRTLE BEACH   MOSUNNY   82  73  74 S17       30.04R
N MYRTLE BEACH PTSUNNY   83  76  79 SW16      30.05R HX  91

$$

GAZ063-065-086>088-099>101-113>116-118-119-134-136>141-150-110000-
...GEORGIA...

CITY           SKY/WX    TMP DP  RH WIND       PRES   REMARKS
SAVANNAH ARPT  CLOUDY    77  69  76 SW10G25   30.05R THUNDER
HUNTER AAF     PTSUNNY   75  71  86 SW8       30.02F
FORT STEWART   LGT RAIN  74  70  89 CALM      30.04F
STATESBORO     NOT AVBL
SYLVANIA       MOCLDY    88  72  59 S9        30.04R HX  95
CLAXTON        CLOUDY    77  75  94 W7        30.06R THUNDER
THOMSON        CLOUDY    82  78  86 CALM      30.06S HX  92
AUGUSTA-BUSH   CLOUDY    90  67  46 W6        29.99S HX  93
AUGUSTA-DANIEL CLOUDY    90  69  50 NW7       30.01F HX  94
SWAINSBORO     FAIR      82  72  69 S5        30.04R
VIDALIA        RAIN      79  72  78 S10       30.07R
ALMA           PTSUNNY   80  72  76 W3        30.05R
WAYCROSS       MOSUNNY   86  77  73 W12       30.05R HX  97
JESUP          NOT AVBL
BRUNSWICK      CLOUDY    77  72  83 CALM      30.06R
SAINT SIMONS   LGT RAIN  78  70  76 VRB6      30.04F

$$

SCZ027-028-034-036>038-045-046-048>050-GAZ119-141-110000-
...LAKE AND SUPPLEMENTAL COASTAL OBSERVATIONS...

STATION/POSITION TIME  TEMP    WIND        PRES    WAVE   SWELL
                       AIR SEA DIR/SP/G            HT/PER HT/PER/DIR
                 (UTC) (F)     (DEG/KT/KT) (MB)    (FT/S) (FT/S/D)
UPR LAKE MARION  NOT AVBL
WINYAH BAY       2300   84     200/ 15     1016.0S
LAKE MURRAY      2300   88     260/  7/  9 1015.2R
ACE BASIN NERRS  2300   84     180/  2     1017.0S
FORT PULASKI     2300   78 79  240/ 10/ 15   N/A
SAPELO ISLAND    2200   80     250/ 11     1019.0S

$$

ANZ835-935-AMZ111-154-330-350-352-354-374-450-454-472-110000-
...C-MAN AND BUOY OBSERVATIONS...

STATION/POSITION TIME  TEMP    WIND        PRES    WAVE   SWELL
                       AIR SEA DIR/SP/G            HT/PER HT/PER/DIR
                 (UTC) (F)     (DEG/KT/KT) (MB)    (FT/S) (FT/S/D)
FOLLY BEACH CMAN 2300   82     180/ 17/ 20 1017.8R
BUOY 41004       2300   83 82  180/ 16/ 19 1016.6F   4/ 5   2/ 8
BUOY 41008       2300   82 84  230/ 16/ 17 1017.1F   3/ 3   2/110/ 9
5E ST. MARYS GA  2300      83                N/A     2/ 9
FRYING PAN BUOY  NOT AVBL
BUOY 41025       2300          VRB 17/ 21  1018.4R   5/ 5   2/140/ 9
CAPE LOOKOUT NC  2300   82     200/ 10/ 12 1018.7R
BUOY 41002       2243   81 81  190/ 14/ 16 1021.1F   4/ 9   2/130/ 9
BUOY 41010       2300   81 84  210/ 10/ 12 1019.4R   2/ 9   2/ 90/ 9
BUOY 41012       NOT AVBL
ST AUGUSTINE FL  2300   81     160/ 11/ 12 1019.6R
CAPERS NEARSHORE 2200   83     200/ 17/ 19   N/A
FRIPP NEARSHORE  2200   83     200/ 16/ 19   N/A


$$



USA.gov is the U.S. government's official web portal to all federal, state and local government web resources and services.